TimeMDT,TemperatureF,Dew PointF,Humidity,Sea Level PressureIn,VisibilityMPH,Wind Direction,Wind SpeedMPH,Gust SpeedMPH,PrecipitationIn,Events,Conditions,WindDirDegrees,DateUTC
12:53 AM,55.9,33.1,42,29.73,10.0,East,3.5,-,N/A,,Clear,80,2013-05-22 06:53:00
1:53 AM,55.0,34.0,45,29.72,10.0,East,13.8,-,N/A,,Clear,90,2013-05-22 07:53:00
2:53 AM,55.0,33.1,43,29.70,10.0,ESE,10.4,-,N/A,,Clear,120,2013-05-22 08:53:00
3:53 AM,55.0,33.1,43,29.70,10.0,ESE,13.8,-,N/A,,Clear,110,2013-05-22 09:53:00
4:53 AM,51.1,33.1,50,29.70,10.0,East,11.5,-,N/A,,Clear,90,2013-05-22 10:53:00
5:53 AM,53.1,33.1,47,29.70,10.0,East,13.8,-,N/A,,Clear,100,2013-05-22 11:53:00
6:53 AM,52.0,35.1,53,29.72,10.0,ESE,15.0,-,N/A,,Clear,120,2013-05-22 12:53:00
7:53 AM,57.9,35.1,42,29.71,10.0,ESE,13.8,-,N/A,,Clear,120,2013-05-22 13:53:00
8:53 AM,63.0,33.1,33,29.71,10.0,SE,15.0,-,N/A,,Clear,140,2013-05-22 14:53:00
9:53 AM,66.9,33.1,28,29.69,10.0,ESE,9.2,-,N/A,,Clear,120,2013-05-22 15:53:00
10:53 AM,75.0,32.0,21,29.66,10.0,ESE,9.2,19.6,N/A,,Clear,110,2013-05-22 16:53:00
11:53 AM,77.0,24.1,14,29.65,10.0,South,8.1,-,N/A,,Clear,180,2013-05-22 17:53:00
12:53 PM,80.1,24.1,13,29.62,10.0,West,10.4,20.7,N/A,,Clear,280,2013-05-22 18:53:00
1:53 PM,81.0,23.0,12,29.59,10.0,Variable,6.9,-,N/A,,Clear,0,2013-05-22 19:53:00
2:53 PM,82.9,21.0,10,29.56,10.0,South,15.0,21.9,N/A,,Clear,170,2013-05-22 20:53:00
3:53 PM,82.9,21.0,10,29.54,10.0,SSW,10.4,24.2,N/A,,Clear,200,2013-05-22 21:53:00
4:53 PM,82.9,19.9,10,29.54,10.0,South,13.8,20.7,N/A,,Clear,190,2013-05-22 22:53:00
5:53 PM,82.0,21.0,10,29.53,10.0,South,18.4,31.1,N/A,,Clear,190,2013-05-22 23:53:00
6:53 PM,81.0,21.0,11,29.52,10.0,SSW,10.4,20.7,N/A,,Clear,200,2013-05-23 00:53:00
7:53 PM,78.1,21.9,12,29.52,10.0,South,5.8,-,N/A,,Clear,170,2013-05-23 01:53:00
8:53 PM,69.1,21.9,17,29.53,10.0,SE,6.9,-,N/A,,Clear,140,2013-05-23 02:53:00
9:53 PM,66.9,21.9,18,29.54,10.0,ESE,10.4,-,N/A,,Clear,120,2013-05-23 03:53:00
10:53 PM,66.9,23.0,19,29.54,10.0,ESE,10.4,-,N/A,,Clear,120,2013-05-23 04:53:00
11:53 PM,71.1,21.9,16,29.54,10.0,SSE,16.1,25.3,N/A,,Clear,150,2013-05-23 05:53:00